Hot Springs, VA

8:40 PM EST on January 16, 2018 (GMT -0500)
Ingalls

Weather History for KHSP - October, 2012

Change the Weather History Date:

Friday, October 5, 2012

  Actual Average Record
Temperature  
Mean Temperature 60 °F -  
Max Temperature 66 °F 59 °F 77 °F (1997)
Min Temperature 53 °F 45 °F 30 °F (1996)
Degree Days  
Heating Degree Days 6    
Growing Degree Days 10 (Base 50)    
Moisture  
Dew Point 50 °F    
Average Humidity 74    
Maximum Humidity 88    
Minimum Humidity 59    
Precipitation  
Precipitation 0.00 in - - ()
Sea Level Pressure  
Sea Level Pressure 30.24 in    
Wind  
Wind Speed 9 mph (WSW)    
Max Wind Speed 13 mph    
Max Gust Speed 17 mph    
Visibility 10 miles    
Events      
Averages and records for this station are not official NWS values.
T = Trace of Precipitation, MM = Missing Value Source: NWS Daily Summary

Daily Weather History Graph

Daily Weather History Graph

Search for Another Location

Airport or City:

Trip Planner

Search our weather history database for the weather conditions in past years. The results will help you decide how hot, cold, wet, or windy it might be!

Date:

Astronomy

Oct. 05, 2012 Rise Set
Actual Time 7:18 AM EDT 6:55 PM EDT
Civil Twilight 6:52 AM EDT 7:21 PM EDT
Nautical Twilight 6:22 AM EDT 7:52 PM EDT
Astronomical Twilight 5:51 AM EDT 8:22 PM EDT
Moon 10:22 PM EDT (10/5) 12:20 PM EDT (10/5)
Length of Visible Light 12h 29m
Length of Day
11h 36m
Waning Gibbous, 74% of the Moon is Illuminated
Oct 5
Waning Gibbous
Oct 8
Last Quarter
Oct 15
New
Oct 21
First Quarter
Oct 29
Full

Hourly Weather History & Observations

Time (EDT) Temp. Dew Point Humidity Pressure Visibility Wind Dir Wind Speed Gust Speed Precip Events Conditions
12:17 AM 55.4 °F 48.2 °F 77% 30.32 in 10.0 mi West 9.2 mph - N/A   Clear
12:37 AM 55.4 °F 48.2 °F 77% 30.32 in 10.0 mi West 9.2 mph - N/A   Clear
12:57 AM 55.4 °F 48.2 °F 77% 30.31 in 7.0 mi West 8.1 mph - N/A   Clear
1:17 AM 53.6 °F 48.2 °F 82% 30.32 in 7.0 mi West 8.1 mph - N/A   Clear
1:37 AM 53.6 °F 48.2 °F 82% 30.32 in 10.0 mi West 10.4 mph - N/A   Clear
1:57 AM 53.6 °F 48.2 °F 82% 30.31 in 10.0 mi West 9.2 mph - N/A   Clear
2:17 AM 55.4 °F 48.2 °F 77% 30.31 in 10.0 mi West 10.4 mph 16.1 mph N/A   Clear
2:37 AM 53.6 °F 48.2 °F 82% 30.31 in 10.0 mi West 9.2 mph - N/A   Clear
2:57 AM 53.6 °F 48.2 °F 82% 30.31 in 10.0 mi West 10.4 mph - N/A   Clear
3:17 AM 53.6 °F 48.2 °F 82% 30.30 in 10.0 mi West 10.4 mph - N/A   Clear
3:37 AM 53.6 °F 48.2 °F 82% 30.30 in 10.0 mi West 11.5 mph - N/A   Clear
3:57 AM 53.6 °F 48.2 °F 82% 30.29 in 10.0 mi West 9.2 mph - N/A   Clear
4:17 AM 53.6 °F 48.2 °F 82% 30.29 in 10.0 mi West 9.2 mph - N/A   Clear
4:37 AM 53.6 °F 48.2 °F 82% 30.29 in 10.0 mi West 8.1 mph - N/A   Clear
4:57 AM 53.6 °F 48.2 °F 82% 30.29 in 10.0 mi West 10.4 mph - N/A   Clear
5:17 AM 53.6 °F 48.2 °F 82% 30.29 in 10.0 mi West 8.1 mph - N/A   Clear
5:37 AM 53.6 °F 48.2 °F 82% 30.29 in 10.0 mi West 9.2 mph - N/A   Clear
5:57 AM 53.6 °F 48.2 °F 82% 30.30 in 10.0 mi West 5.8 mph - N/A   Clear
6:17 AM 53.6 °F 48.2 °F 82% 30.30 in 10.0 mi West 6.9 mph - N/A   Clear
6:37 AM 53.6 °F 48.2 °F 82% 30.30 in 10.0 mi West 8.1 mph - N/A   Clear
6:57 AM 53.6 °F 48.2 °F 82% 30.30 in 10.0 mi West 10.4 mph - N/A   Clear
7:17 AM 53.6 °F 48.2 °F 82% 30.29 in 10.0 mi West 8.1 mph - N/A   Clear
7:37 AM 53.6 °F 48.2 °F 82% 30.29 in 10.0 mi West 8.1 mph - N/A   Clear
7:57 AM 53.6 °F 48.2 °F 82% 30.29 in 10.0 mi West 10.4 mph - N/A   Clear
8:17 AM 53.6 °F 50.0 °F 88% 30.29 in 10.0 mi West 11.5 mph - N/A   Clear
8:57 AM 53.6 °F 50.0 °F 88% 30.29 in 10.0 mi West 12.7 mph - N/A   Clear
9:37 AM 55.4 °F 51.8 °F 88% 30.30 in 10.0 mi West 11.5 mph - N/A   Clear
9:57 AM 55.4 °F 51.8 °F 88% 30.30 in 10.0 mi West 11.5 mph - N/A   Clear
10:37 AM 57.2 °F 51.8 °F 82% 30.30 in 10.0 mi West 8.1 mph - N/A   Clear
10:57 AM 59.0 °F 51.8 °F 77% 30.29 in 10.0 mi WNW 8.1 mph - N/A   Clear
11:17 AM 60.8 °F 51.8 °F 72% 30.29 in 10.0 mi West 8.1 mph - N/A   Clear
11:37 AM 60.8 °F 51.8 °F 72% 30.28 in 10.0 mi West 8.1 mph - N/A   Clear
11:57 AM 60.8 °F 53.6 °F 77% 30.27 in 10.0 mi WNW 6.9 mph - N/A   Clear
12:18 PM 62.6 °F 53.6 °F 72% 30.27 in 10.0 mi WNW 3.5 mph - N/A   Clear
12:57 PM 62.6 °F 51.8 °F 68% 30.26 in 10.0 mi West 8.1 mph - N/A   Scattered Clouds
1:17 PM 62.6 °F 51.8 °F 68% 30.25 in 10.0 mi West 6.9 mph - N/A   Scattered Clouds
1:37 PM 64.4 °F 51.8 °F 64% 30.24 in 10.0 mi WNW 8.1 mph - N/A   Scattered Clouds
1:57 PM 64.4 °F 51.8 °F 64% 30.23 in 10.0 mi West 8.1 mph - N/A   Scattered Clouds
2:17 PM 64.4 °F 51.8 °F 64% 30.22 in 10.0 mi West 4.6 mph - N/A   Clear
2:37 PM 64.4 °F 51.8 °F 64% 30.22 in 10.0 mi WSW 8.1 mph - N/A   Scattered Clouds
2:57 PM 64.4 °F 51.8 °F 64% 30.21 in 10.0 mi West 6.9 mph - N/A   Scattered Clouds
3:17 PM 64.4 °F 51.8 °F 64% 30.21 in 10.0 mi West 5.8 mph - N/A   Scattered Clouds
3:37 PM 66.2 °F 51.8 °F 60% 30.20 in 10.0 mi SW 10.4 mph - N/A   Scattered Clouds
3:57 PM 66.2 °F 51.8 °F 60% 30.20 in 10.0 mi WSW 10.4 mph 17.3 mph N/A   Clear
4:17 PM 66.2 °F 51.8 °F 60% 30.19 in 10.0 mi West 11.5 mph - N/A   Clear
4:37 PM 66.2 °F 51.8 °F 60% 30.19 in 10.0 mi West 9.2 mph - N/A   Clear
4:58 PM 66.2 °F 51.8 °F 60% 30.18 in 10.0 mi West 8.1 mph - N/A   Clear
5:17 PM 64.4 °F 50.0 °F 59% 30.18 in 7.0 mi WSW 10.4 mph - N/A   Clear
5:37 PM 64.4 °F 50.0 °F 59% 30.17 in 10.0 mi WSW 9.2 mph - N/A   Clear
5:57 PM 64.4 °F 50.0 °F 59% 30.16 in 10.0 mi SSW 5.8 mph - N/A   Clear
6:17 PM 62.6 °F 50.0 °F 63% 30.17 in 10.0 mi SW 6.9 mph - N/A   Clear
6:37 PM 60.8 °F 50.0 °F 68% 30.17 in 10.0 mi SW 8.1 mph - N/A   Clear
6:57 PM 59.0 °F 48.2 °F 67% 30.17 in 10.0 mi SW 8.1 mph - N/A   Clear
7:17 PM 60.8 °F 48.2 °F 63% 30.17 in 10.0 mi SW 8.1 mph - N/A   Clear
7:37 PM 59.0 °F 48.2 °F 67% 30.18 in 10.0 mi SW 9.2 mph - N/A   Clear
7:57 PM 59.0 °F 48.2 °F 67% 30.17 in 10.0 mi SW 8.1 mph - N/A   Clear
8:17 PM 57.2 °F 48.2 °F 72% 30.17 in 10.0 mi SW 6.9 mph - N/A   Clear
8:38 PM 59.0 °F 48.2 °F 67% 30.17 in 10.0 mi SSW 5.8 mph - N/A   Clear
8:57 PM 59.0 °F 48.2 °F 67% 30.16 in 10.0 mi SW 5.8 mph - N/A   Clear
9:17 PM 57.2 °F 48.2 °F 72% 30.16 in 10.0 mi SW 5.8 mph - N/A   Clear
9:37 PM 57.2 °F 48.2 °F 72% 30.16 in 10.0 mi South 5.8 mph - N/A   Clear
9:57 PM 59.0 °F 50.0 °F 72% 30.15 in 10.0 mi SSW 4.6 mph - N/A   Mostly Cloudy
10:17 PM 57.2 °F 51.8 °F 82% 30.15 in 10.0 mi South 5.8 mph - N/A   Scattered Clouds
10:38 PM 57.2 °F 51.8 °F 82% 30.14 in 10.0 mi South 8.1 mph - N/A   Clear
10:58 PM 57.2 °F 51.8 °F 82% 30.14 in 10.0 mi SSW 6.9 mph - N/A   Clear
11:17 PM 57.2 °F 51.8 °F 82% 30.14 in 10.0 mi SSW 6.9 mph - N/A   Clear
11:37 PM 57.2 °F 51.8 °F 82% 30.13 in 10.0 mi SW 8.1 mph - N/A   Clear
11:57 PM 57.2 °F 51.8 °F 82% 30.12 in 10.0 mi SW 6.9 mph - N/A   Clear